Temp_Advection
nan nan nan nan nan nan nan nan nan nan nan nan nan nan nan nan nan nan nan nan nan nan nan nan nan nan nan nan nan nan nan nan nan nan nan nan nan nan nan nan nan nan nan nan nan nan nan nan nan nan nan nan nan nan nan nan nan nan nan nan nan nan nan nan nan nan nan nan nan
nan 0 0 0 0 1 1 0 0 0 0 0 1 1 1 0 0 0 0 0 0 0 0 0 -0 -0 -0 -0 -0 -0 -0 -0 -0 -0 -0 0 0 0 0 0 -0 -0 -0 0 -0 -0 -0 -0 0 0 0 0 0 0 0 0 0 0 0 0 0 0 0 0 0 0 0 0 nan
nan 0 0 0 1 1 0 0 0 0 0 1 1 1 0 0 0 0 0 0 0 0 0 0 -0 -0 -0 -0 -0 -0 -0 -0 -0 0 0 0 0 0 0 0 0 -0 -0 -0 -0 -0 -0 -0 -0 0 0 -0 0 0 0 0 0 0 0 -0 0 0 0 0 0 0 0 0 nan
nan 0 0 1 1 1 0 0 0 0 1 1 1 1 0 0 0 0 0 0 0 0 0 0 0 -0 -0 -0 -0 -0 -0 -0 -0 0 0 0 0 0 0 0 0 -0 -0 -0 -0 -0 -0 -0 -0 -0 0 0 -0 0 0 -0 -0 0 0 0 -0 0 0 0 0 0 0 0 nan
nan 0 1 1 1 1 0 0 1 1 1 1 1 1 0 0 0 0 0 0 0 0 0 0 0 -0 -0 -0 -0 -0 -0 -0 -0 0 0 0 0 0 0 0 0 0 -0 -0 -0 -0 -0 0 0 -0 0 0 0 -0 -0 -0 -0 -0 0 0 0 0 0 0 0 0 0 0 nan
nan 1 1 1 1 1 0 0 1 1 1 1 1 1 0 0 0 0 0 0 0 0 0 0 0 -0 0 -0 -0 -0 -0 0 0 0 0 0 0 0 0 0 0 -0 -0 -0 -0 -0 -0 0 0 0 0 0 0 0 -0 -0 -0 -0 -0 0 0 0 0 0 0 0 0 0 nan
nan 1 1 1 0 0 0 0 1 1 1 1 1 0 0 0 0 0 0 0 0 0 0 0 0 -0 0 0 0 0 -0 0 0 0 0 0 0 0 0 0 0 -0 -0 -0 -0 -0 -0 -0 0 0 0 0 0 0 0 0 -0 -0 -0 0 0 0 0 0 0 0 0 0 nan
nan 1 1 1 0 0 1 1 1 1 1 1 1 0 0 0 0 0 0 0 0 0 0 0 0 -0 0 0 0 0 0 0 0 0 0 0 0 0 0 0 0 0 -0 -0 -0 -0 -0 0 0 0 -0 0 0 0 0 0 0 -0 -0 -0 0 0 0 0 0 0 -0 -0 nan
nan 1 1 0 0 1 1 1 1 1 1 1 0 0 0 0 0 0 0 0 0 0 0 0 0 0 0 0 0 0 0 0 0 0 0 0 0 0 0 0 0 0 -0 -0 -0 -0 -0 0 0 0 0 -0 0 0 0 0 0 -0 -0 -0 -0 0 0 0 0 0 0 -0 nan
nan 0 0 0 0 1 1 1 1 1 1 0 0 0 0 0 0 0 0 0 0 0 0 0 0 0 0 0 0 0 0 0 0 0 0 0 0 0 -0 -0 -0 -0 0 -0 -0 -0 -0 0 0 0 0 0 0 0 0 -0 -0 -0 -0 -0 -0 -0 0 0 0 0 0 0 nan
nan 0 0 0 1 1 1 1 1 1 0 0 0 0 0 0 0 0 0 0 0 0 0 0 0 0 0 0 0 0 0 0 0 0 0 0 0 -0 -0 -0 -0 -0 -0 -0 -0 -0 -0 -0 0 0 0 0 0 0 0 -0 -0 -0 0 -0 -0 -0 0 0 0 0 0 -0 nan
nan 1 1 1 1 1 1 1 1 1 0 0 0 0 0 0 0 0 0 0 0 0 0 0 0 0 0 0 0 0 0 0 0 0 0 -0 -0 -0 -0 -0 -0 -0 -0 -0 -0 -0 -0 -0 -0 -0 0 0 0 0 0 -0 -0 -0 -0 0 -0 -0 -0 0 0 0 0 -0 nan
nan 1 1 1 1 1 1 1 1 1 1 1 1 0 0 0 0 0 0 0 0 0 0 0 0 0 0 0 0 0 0 0 0 0 -0 -0 -0 -0 -0 -0 -0 -0 -0 -0 -0 -0 -0 -0 -0 -0 -0 0 0 0 0 -0 -0 -0 -0 -0 -0 -0 -0 -0 -0 -0 -0 -0 nan
nan 1 1 1 1 1 1 1 1 1 1 1 1 0 0 0 0 0 0 0 0 0 0 0 0 0 0 0 0 0 0 0 0 -0 -0 -0 -0 -0 -0 -0 -0 -0 -0 0 0 0 0 0 -0 -0 -0 -0 -0 0 0 0 -0 -0 -0 -0 -0 -0 -0 -0 -0 -0 -0 -1 nan
nan 1 1 1 1 1 1 1 1 1 1 1 0 0 0 0 0 0 0 0 0 0 0 0 0 0 0 0 0 0 0 0 0 -0 -0 -0 -0 -0 -0 -0 -0 -0 -0 0 0 0 0 0 0 -0 -0 -0 -0 -0 -0 0 0 0 0 -0 -0 -0 -0 -0 -0 -0 -0 -0 nan
nan 1 1 1 1 1 1 1 1 1 1 1 0 0 0 0 0 0 0 0 0 0 0 0 0 0 0 0 0 0 0 0 -0 -0 -0 -0 -0 -0 -0 -0 -0 -0 -0 -0 0 0 0 0 0 0 -0 -0 -0 -0 -0 0 0 0 0 0 0 0 0 -0 -0 0 0 -0 nan
nan 1 1 1 0 0 1 1 1 1 1 0 0 0 0 0 0 0 0 0 0 0 0 0 0 0 0 0 0 0 0 0 -0 -0 -0 -0 -0 -0 -0 -0 -0 -0 -0 -0 -0 -0 0 0 0 0 0 0 -0 -0 -0 0 0 0 0 1 1 1 1 0 0 0 0 0 nan
nan 1 0 0 0 1 1 1 1 1 1 1 0 0 0 0 0 0 0 0 0 0 0 0 0 0 0 0 0 0 -0 -0 -0 -0 -0 -0 -0 -0 -0 -0 -0 -0 -0 -0 -0 -0 -0 0 0 0 0 0 0 0 0 0 0 0 0 0 1 1 1 1 1 0 0 0 nan
nan 1 0 0 1 1 1 1 1 1 1 1 0 0 0 0 0 0 0 0 0 0 0 0 0 0 0 0 0 -0 -0 -0 -0 -0 -0 -0 -0 -0 -0 -0 -0 -0 -0 -0 -0 -0 -0 -0 -0 0 0 0 0 0 -0 -0 0 0 0 0 0 1 1 1 1 1 0 0 nan
nan 1 1 1 1 1 1 1 1 1 1 1 0 0 0 0 0 0 0 0 0 0 0 -0 0 0 0 0 0 -0 -0 -0 -0 -0 -0 -0 -0 -0 -0 -0 -0 -0 -0 -0 -0 -0 -0 0 0 -0 -0 -0 -0 -0 -0 -0 -0 -0 -0 0 0 1 1 1 1 1 0 0 nan
nan 1 1 1 1 1 1 1 1 1 1 1 0 0 0 0 0 0 0 0 0 0 0 -0 0 0 0 0 0 0 -0 -0 -0 -0 -0 -0 -0 -0 -0 -0 -0 -0 -0 -0 -0 0 0 0 -0 -0 -0 -0 -1 -1 -1 -1 -1 -0 -0 0 0 1 1 1 1 1 0 0 nan
nan 1 1 1 1 1 1 1 1 1 1 0 0 0 0 0 0 0 0 0 0 0 -0 0 0 -0 -0 -0 -0 -0 -0 -0 -0 -0 -0 -0 -0 -0 -0 -0 -0 -0 -0 -0 -0 -0 -0 -0 -0 -0 -1 -1 -1 -1 -1 -1 -1 -1 -0 -0 0 0 1 1 1 1 0 0 nan
nan 1 1 1 1 1 1 1 1 1 1 0 0 0 0 0 0 0 0 0 0 -0 -0 0 0 -0 -0 -0 -0 -0 -0 -0 -0 -0 -0 -0 -0 -0 -0 -0 -0 -0 -0 -0 -0 -0 -0 -0 -0 -0 -1 -1 -1 -1 -1 -0 -0 -0 -0 -0 -0 0 0 0 1 0 0 0 nan
nan 1 1 1 1 1 1 1 1 1 1 0 0 0 0 0 0 0 0 0 0 0 0 0 -0 -0 -0 -0 -0 -0 -0 -0 -0 -0 -0 -0 -0 -0 -0 -0 -0 -0 -0 -0 -0 -0 -0 -0 -0 -0 -0 -0 -0 -0 -0 -0 0 0 -0 -0 -0 -0 0 0 0 0 0 0 nan
nan 1 1 1 1 1 1 1 1 1 1 1 0 0 0 0 0 0 0 0 0 0 0 0 -0 -0 -0 -0 -0 -0 -0 -0 -0 -0 -0 -0 -0 -0 -0 -0 -0 -0 -0 -0 -0 0 0 0 0 -0 -0 -0 -0 -0 -0 0 0 0 0 0 -0 -0 -0 -0 -0 -0 0 0 nan
nan 1 1 1 1 1 1 1 1 1 1 1 0 0 0 0 0 0 0 0 0 0 0 0 0 -0 -0 -0 -0 -0 -0 -0 -0 -0 -0 -0 -0 -0 -0 -0 -0 -0 -0 -0 -0 -0 0 1 1 1 0 -0 -0 -0 -0 -0 0 0 0 1 0 0 -0 -0 -0 -0 -0 -0 nan
nan 1 1 1 1 1 1 1 1 1 1 0 0 0 0 0 0 0 0 0 0 0 0 0 -0 -0 -0 -0 -0 -0 -0 -0 -0 -0 -0 -0 -0 -0 -0 -0 -0 -0 -0 -0 -0 -0 -0 0 1 1 1 0 -0 -0 -0 -0 -0 0 0 1 1 0 0 -0 -0 -0 -0 -0 nan
nan 1 1 1 1 1 1 1 1 1 1 0 0 0 0 0 0 0 0 0 0 0 0 0 0 -0 -0 -0 -0 -0 -0 -0 -0 -0 -0 -0 -0 -0 -0 -0 -0 -0 -0 -0 -0 -0 -0 0 0 1 1 0 -0 -0 -0 -0 -0 -0 0 0 0 0 0 -0 -0 -0 -0 -0 nan
nan 1 1 1 1 1 1 1 1 1 0 0 1 0 0 0 -0 0 0 0 0 0 0 0 0 0 0 -0 -0 -0 -0 -0 -0 -0 -0 -0 -0 -0 -0 -0 -0 -0 -0 -0 -0 -0 -0 -0 0 0 1 0 -0 -0 -0 -0 -0 -0 0 0 0 0 0 0 -0 -0 -0 0 nan
nan 1 1 1 1 1 1 1 1 1 1 1 1 0 0 -0 0 0 0 0 0 0 0 0 0 0 -0 -0 -0 -0 -0 -0 -0 -0 -0 -0 -0 -0 -0 -0 -0 -0 -0 -0 -0 -0 -0 -0 0 0 0 0 -0 -0 -1 -0 -0 -0 -0 0 0 0 0 0 -0 -0 -0 0 nan
nan 1 1 1 1 1 1 1 1 1 1 1 0 0 -0 -0 0 0 0 0 0 0 0 0 0 0 -0 -0 -0 -0 -0 -0 -0 -0 -0 -0 -0 -0 -0 -0 -0 -0 -0 -0 -0 -0 -0 -0 0 0 0 0 -0 -0 -1 -1 -0 -0 -0 -0 0 0 0 0 -0 -0 -0 -0 nan
nan 1 1 1 1 1 1 1 1 1 1 0 0 -0 -0 0 0 0 0 0 0 0 0 0 -0 -0 -0 -0 -0 -0 -0 -0 -0 -0 -0 -0 -1 -0 -0 -0 0 -0 -0 -0 -0 -0 -0 0 0 0 1 0 -0 -0 -1 -1 -1 -1 -1 -0 -0 0 0 0 0 -0 -0 0 nan
nan 1 1 1 1 1 1 1 1 1 0 0 0 -0 0 0 0 0 0 0 0 0 -0 -0 -0 -0 -0 -0 -0 -0 -0 -0 -0 -0 -0 -0 -0 -0 -0 -0 0 -0 -0 -0 -0 -0 -0 0 0 0 0 0 -0 -0 -1 -1 -1 -1 -1 -1 -0 -0 -0 0 0 -0 -0 0 nan
nan 1 1 1 1 1 1 1 0 0 0 0 0 0 0 0 0 0 0 0 0 0 -0 -0 -0 -0 -0 -0 -0 -0 -0 -0 -0 -0 -0 -0 -0 -0 -0 0 0 0 -0 -0 -0 -0 -0 0 0 0 0 0 -0 -0 -1 -1 -1 -1 -1 -1 -1 -1 -0 -0 -0 -0 -0 -0 nan
nan 1 1 1 1 1 1 0 0 0 0 -0 0 0 0 0 0 0 0 0 0 0 0 -0 -0 -0 -0 -0 -0 -0 -0 -0 -0 -0 -0 -0 -0 -0 -0 -0 0 0 0 -0 -0 -0 -0 0 0 0 0 0 -0 -0 -1 -1 -1 -1 -1 -1 -1 -1 -1 -0 -0 -0 -0 -0 nan
nan 1 1 1 1 1 1 0 0 -0 -0 -0 0 0 0 0 0 0 0 0 0 0 0 0 0 -0 -0 -0 -0 -0 -0 -0 -0 -0 -0 -0 -0 -1 -0 -0 0 0 0 0 -0 -0 -0 0 0 0 0 0 -0 -0 -0 -0 -1 -1 -1 -1 -1 -1 -1 -1 -0 -0 -0 -0 nan
nan 1 1 1 1 1 0 0 -0 -0 -0 0 0 0 0 0 0 0 -0 -0 -0 0 0 0 0 0 -0 -0 -0 -0 -0 -0 -0 -0 -0 -0 -0 -1 -1 -0 -0 0 0 0 -0 -0 -0 -0 0 0 -0 -0 0 0 -0 -0 -0 -0 -0 -0 -0 -0 -0 -0 -0 -0 0 0 nan
nan 1 1 1 0 0 0 0 -0 -0 0 0 0 0 0 0 0 0 -0 -0 -0 -0 -0 -0 -0 -0 -0 -0 -0 -0 0 0 -0 -0 -0 -0 -0 -0 -1 -0 -0 -0 0 0 -0 -0 -0 -0 0 0 -0 -0 -0 0 0 0 0 -0 -0 -0 -0 -0 -0 -0 0 0 0 0 nan
nan 1 0 0 0 0 0 -0 -0 0 0 0 0 0 0 0 0 0 -0 -0 -0 -0 -0 -0 -0 -0 -0 -0 -0 -0 -0 0 0 -0 -0 -0 -0 -0 -0 -0 -0 -0 0 0 0 -0 -0 -0 -0 0 0 -0 -0 0 0 0 0 0 0 0 0 0 0 0 0 0 0 0 nan
nan 0 0 0 0 0 0 0 0 0 0 0 0 0 0 0 0 0 -0 -0 -0 -0 -0 -0 -0 -0 -0 -0 -1 -1 -0 -0 0 0 0 0 0 0 0 -0 -0 -0 0 0 0 -0 -0 -0 -0 0 0 0 -0 0 0 0 0 0 0 0 0 0 0 0 0 0 0 -0 nan
nan nan nan nan nan nan nan nan nan nan nan nan nan nan nan nan nan nan nan nan nan nan nan nan nan nan nan nan nan nan nan nan nan nan nan nan nan nan nan nan nan nan nan nan nan nan nan nan nan nan nan nan nan nan nan nan nan nan nan nan nan nan nan nan nan nan nan nan nan
Wind_Speed
27 26 24 22 20 19 17 15 14 13 12 11 10 9 9 8 7 6 5 4 4 4 5 5 6 7 8 9 11 12 14 15 17 18 19 19 19 20 19 19 19 19 19 19 19 19 20 20 21 21 22 23 23 24 24 25 25 25 25 25 25 25 25 25 25 25 25 25 26
27 25 24 22 20 18 16 15 14 13 12 11 10 9 8 7 6 5 4 4 4 5 5 6 7 7 9 10 11 13 14 16 17 18 19 20 20 20 20 19 19 19 19 19 19 20 20 21 22 22 23 24 24 25 25 25 25 25 25 25 25 25 25 25 25 26 26 26 26
26 25 23 21 19 17 16 15 14 13 11 11 10 9 8 7 6 5 4 4 5 5 6 6 7 8 9 10 12 13 15 16 17 19 19 20 20 20 19 19 19 19 19 20 20 21 21 22 23 23 24 25 25 25 25 25 25 25 25 25 25 25 25 26 26 26 27 27 27
26 24 22 20 18 16 15 14 13 12 11 10 10 9 8 7 5 5 5 5 5 6 6 7 8 9 9 11 12 14 15 16 18 19 19 20 20 20 19 19 19 19 20 20 21 21 22 23 23 24 25 25 25 25 25 25 25 25 25 25 25 25 26 26 26 27 27 27 27
25 23 21 19 17 16 15 14 12 11 11 10 9 9 8 6 6 5 5 5 6 6 7 7 8 9 10 11 13 14 16 17 18 19 19 20 20 20 19 19 19 20 20 21 22 22 23 24 24 25 25 25 25 25 25 25 25 24 25 25 25 25 26 26 26 27 27 27 27
24 22 20 18 17 16 15 13 12 11 11 10 9 9 8 7 6 6 6 6 6 7 7 8 9 9 11 12 13 15 16 17 18 19 19 20 20 20 19 20 20 20 21 22 22 23 24 24 25 25 25 25 25 24 24 24 24 25 25 25 25 26 26 26 27 27 27 27 27
23 21 20 19 17 16 15 13 12 12 11 11 10 9 8 7 6 6 6 7 7 7 8 8 9 10 11 13 14 15 17 18 19 19 20 20 20 20 20 20 20 21 22 22 23 23 24 24 25 25 25 25 24 24 24 24 24 25 25 26 26 26 26 27 27 27 27 27 27
22 21 20 19 17 16 14 14 13 13 12 11 10 9 8 8 7 7 7 7 7 8 8 9 10 11 12 13 15 16 17 18 19 19 20 20 20 20 20 20 21 21 22 23 23 24 24 24 25 24 24 24 24 24 24 24 25 25 26 26 26 26 26 27 27 27 27 27 27
22 21 20 19 17 15 15 14 14 13 13 12 11 10 9 8 8 7 7 7 8 8 9 10 11 12 13 14 15 16 17 18 19 19 20 20 20 20 20 21 21 22 23 23 24 24 24 24 24 24 24 24 24 24 24 25 25 26 26 27 27 27 27 27 27 27 27 27 27
22 21 20 18 17 16 15 15 14 14 13 12 11 10 9 8 8 8 7 8 8 9 10 11 12 13 14 15 16 17 17 18 19 20 20 20 20 20 21 21 22 22 23 23 24 24 24 24 24 24 24 24 24 24 25 25 26 26 27 27 27 27 27 27 27 27 27 27 28
22 20 19 18 17 16 16 16 15 14 14 13 11 10 9 8 8 8 8 8 9 10 11 12 13 14 14 15 16 17 18 19 19 20 20 20 20 21 21 22 22 23 23 23 24 24 24 24 24 24 24 24 24 25 25 25 26 26 27 27 27 28 27 27 27 27 27 27 28
21 20 18 18 17 17 17 16 16 15 14 12 11 10 9 8 8 8 8 9 10 11 12 13 13 14 15 16 16 17 18 19 19 20 20 20 20 21 21 22 22 23 23 23 23 23 24 24 24 24 24 24 24 25 25 26 26 27 27 27 28 27 27 27 27 27 27 27 28
20 19 18 18 18 17 17 17 16 15 13 12 10 9 8 8 8 8 9 10 11 12 13 13 14 15 15 16 17 17 18 19 19 20 20 20 20 21 21 22 22 22 23 23 23 23 23 24 24 24 25 25 25 25 26 26 27 27 27 28 27 27 27 27 27 27 27 28 28
20 19 19 18 18 18 17 16 15 14 13 11 9 8 8 8 8 9 9 10 11 12 13 14 15 15 16 16 17 18 18 19 19 19 20 20 20 21 21 22 22 22 22 22 23 23 23 24 24 25 25 25 26 26 26 26 27 27 27 27 27 27 27 27 27 27 27 28 28
20 20 19 19 18 18 17 16 15 14 12 10 9 8 8 8 9 9 10 11 12 13 14 14 15 16 16 16 17 18 18 19 19 19 19 20 20 21 21 21 21 22 22 22 22 23 23 24 24 25 25 26 26 26 27 27 27 27 27 27 27 27 27 27 27 27 27 28 29
21 20 20 19 19 18 17 16 14 13 11 10 9 8 8 9 9 10 10 11 12 13 14 15 15 16 16 17 17 18 18 18 19 19 19 20 20 20 21 21 21 22 22 22 23 23 23 24 24 25 26 26 26 27 27 27 27 27 27 27 27 26 27 27 27 27 27 28 29
21 21 20 19 18 17 16 15 14 12 11 9 9 8 8 9 10 10 11 12 13 14 14 15 15 16 16 17 17 18 18 18 18 19 19 20 20 20 20 21 21 22 22 23 23 24 24 24 25 25 26 26 26 27 27 27 27 27 27 27 26 26 26 26 26 27 27 28 28
22 21 20 19 18 17 16 14 13 12 10 9 9 9 9 9 10 11 12 12 13 14 14 15 15 16 16 17 17 18 18 18 18 18 19 19 20 20 20 21 21 22 22 23 24 24 24 25 25 25 26 26 26 27 27 27 27 27 27 27 27 26 26 26 26 27 27 28 28
22 21 20 19 17 16 15 14 13 11 10 9 9 9 9 10 11 11 12 13 13 13 14 14 15 16 16 16 17 17 17 17 18 18 18 19 19 20 20 21 21 22 23 23 24 24 25 25 26 26 26 27 27 27 27 27 27 27 27 27 27 27 27 26 26 27 27 27 28
21 20 19 18 17 16 15 14 12 11 10 10 9 9 10 11 11 12 12 13 13 13 14 14 15 15 16 16 16 17 17 17 17 17 18 19 19 20 21 21 22 22 23 24 24 25 25 26 26 26 27 27 28 28 28 28 28 28 28 27 27 27 27 27 27 27 27 27 27
20 19 18 17 16 15 14 13 12 11 10 10 10 10 10 11 12 12 13 13 13 13 14 14 14 15 15 16 16 16 16 17 17 17 18 19 19 20 21 22 22 23 23 24 24 25 25 26 26 27 27 28 28 28 28 28 28 28 28 28 28 27 27 27 27 27 27 26 26
19 18 17 17 16 15 14 13 12 11 10 10 10 10 11 12 12 12 13 13 13 13 13 14 14 15 15 15 15 15 16 16 17 17 18 19 20 20 21 22 23 23 24 24 25 25 26 26 27 27 28 28 28 28 28 28 28 28 29 28 28 28 28 27 27 27 26 26 25
18 18 17 16 16 15 14 13 12 11 10 10 11 11 12 12 12 13 13 13 13 13 13 13 14 14 15 15 15 15 15 16 16 17 18 19 20 21 22 22 23 24 24 25 25 26 27 27 27 27 28 28 28 28 28 28 28 29 29 29 29 29 28 28 27 26 26 25 24
18 17 17 16 15 15 14 13 12 11 11 11 11 11 12 12 13 13 13 13 12 12 13 13 14 14 14 15 15 15 16 16 17 17 18 19 20 21 22 23 23 24 25 25 26 26 26 27 27 27 27 28 28 28 28 28 29 29 29 29 30 29 29 28 27 26 25 25 24
18 17 17 16 15 14 14 13 12 11 11 11 11 12 12 12 13 13 13 12 12 12 12 13 13 14 14 14 15 16 16 17 18 18 19 20 21 22 23 23 24 24 25 25 25 26 26 26 26 26 27 28 28 28 29 28 29 29 29 29 29 29 29 28 27 25 24 24 24
18 17 16 15 15 14 13 13 12 11 11 11 12 12 12 13 13 12 12 12 12 12 12 13 13 13 14 14 15 16 17 18 19 19 20 21 22 23 23 24 24 25 25 25 26 26 26 26 26 26 26 27 28 29 29 29 29 29 29 29 29 28 28 28 27 26 24 24 23
17 16 16 15 14 14 13 12 12 11 11 11 12 12 12 12 12 12 12 11 11 12 12 13 13 13 14 15 15 17 17 19 20 20 21 22 23 23 24 24 25 25 25 26 26 26 26 26 26 26 26 27 28 28 29 29 29 29 29 29 28 27 27 26 26 25 25 24 23
16 16 15 15 14 13 13 12 11 11 11 11 12 12 12 12 12 11 11 11 11 12 12 12 13 14 14 15 16 17 18 19 20 21 22 23 23 24 24 25 25 25 25 26 26 26 26 26 27 26 26 26 27 27 28 29 29 30 30 29 28 26 25 24 24 24 24 24 24
16 15 15 14 14 13 12 11 11 11 11 11 12 12 12 12 11 11 11 11 11 12 12 13 14 14 15 16 17 18 19 20 21 22 23 23 24 24 24 25 25 25 26 26 26 26 27 27 27 27 26 26 26 27 28 29 29 30 29 29 27 25 24 23 23 23 24 24 25
15 15 15 14 13 12 12 11 11 11 11 12 12 12 12 11 11 11 11 11 12 12 13 14 14 15 16 17 18 19 20 21 22 23 23 24 24 24 25 25 25 25 26 26 26 27 27 27 27 27 27 26 26 26 28 28 29 29 29 28 26 24 22 22 22 23 24 25 26
15 15 14 13 13 12 11 11 11 11 12 12 12 12 11 11 10 11 11 11 12 13 14 14 15 15 16 18 18 20 20 21 22 23 24 24 24 25 25 25 25 26 26 26 27 27 27 27 27 27 26 26 26 26 27 28 29 29 29 28 26 23 21 21 21 23 24 25 25
15 14 14 13 12 11 11 11 11 12 12 12 11 11 11 10 10 11 11 12 13 13 14 15 15 16 17 18 19 20 21 22 23 23 24 24 25 25 25 25 25 26 26 27 27 27 27 27 27 27 26 25 25 26 27 28 28 29 28 27 25 23 21 20 21 22 23 24 23
14 14 13 12 12 11 11 11 11 12 11 11 11 11 10 10 11 11 12 12 13 14 15 16 16 17 18 19 20 21 22 22 23 24 24 24 25 25 26 26 26 26 26 27 27 27 27 27 27 27 26 25 25 26 27 28 28 29 28 28 26 23 21 20 21 21 21 21 21
14 13 12 12 11 11 11 11 11 11 11 11 11 11 11 11 11 12 12 13 13 14 15 16 17 18 19 20 21 22 22 23 23 24 24 25 25 25 26 26 26 26 26 27 27 27 27 27 27 26 25 25 25 26 26 27 28 28 28 27 26 24 22 20 20 20 20 21 22
13 13 12 11 11 11 11 11 11 11 11 11 11 11 11 11 11 12 12 13 14 15 16 17 18 19 20 20 21 22 23 23 24 24 24 25 25 26 26 26 26 26 26 26 27 27 27 27 27 26 25 24 24 25 26 27 28 28 28 27 25 24 22 21 20 21 21 22 23
13 12 11 11 11 11 11 11 11 11 11 11 11 11 11 11 12 12 13 14 14 15 16 17 18 19 20 21 21 22 23 23 24 24 24 25 25 26 26 27 26 26 26 26 27 27 27 27 26 25 24 24 24 24 25 26 27 27 27 26 25 23 22 22 22 23 23 24 25
12 11 11 11 11 11 11 11 11 11 11 11 11 11 11 11 12 13 14 14 15 16 17 18 19 20 21 21 22 22 23 23 24 24 25 25 26 26 27 27 27 26 26 26 27 27 27 27 26 24 23 23 23 24 25 25 26 26 26 25 24 23 23 23 24 24 25 25 25
11 11 10 10 10 11 11 11 11 12 12 11 11 11 11 12 12 13 14 15 16 17 18 19 19 20 21 22 22 22 23 23 24 24 25 25 26 26 27 27 27 27 26 26 27 27 27 26 25 24 22 22 23 24 24 25 25 25 25 25 24 24 24 24 25 25 25 24 24
10 10 10 10 10 11 11 11 12 12 12 11 11 11 11 12 13 13 15 16 17 18 18 19 20 21 21 22 23 23 23 23 23 24 25 25 25 26 26 27 27 27 27 26 26 26 26 26 24 23 22 21 22 23 24 24 25 25 25 24 25 25 26 26 26 25 25 24 25
10 10 10 10 10 11 11 12 12 12 11 11 11 11 11 12 13 14 15 16 17 18 19 20 20 21 22 22 23 23 23 23 23 24 24 25 25 25 26 26 27 27 27 26 26 26 26 25 24 22 21 21 21 22 23 24 24 24 24 24 25 27 28 28 26 24 24 25 28
9 9 10 10 11 11 12 12 12 11 11 11 11 11 12 13 14 15 16 17 18 19 19 20 21 21 22 22 23 23 24 24 24 24 24 25 25 25 26 26 27 27 26 26 26 26 25 25 23 22 21 21 21 22 22 23 24 24 25 25 26 27 28 28 26 24 25 29 32
Wind_Direction
193 194 195 196 197 197 196 194 194 198 204 210 214 216 219 224 231 240 252 269 286 299 307 312 314 317 320 324 327 329 330 330 329 328 326 325 324 322 321 321 320 319 318 317 316 316 315 315 315 314 314 314 314 314 313 313 313 313 313 313 313 313 313 312 312 311 311 311 310
195 196 198 199 200 199 198 198 200 205 209 212 215 218 222 228 235 245 258 274 288 298 303 307 310 315 320 323 326 328 329 328 328 326 325 324 322 321 320 319 319 318 317 316 315 315 314 314 314 313 313 313 313 313 313 312 312 313 313 313 312 312 312 312 311 311 311 310 310
197 199 200 202 202 201 201 204 208 212 214 214 216 220 224 230 237 248 262 275 288 294 299 303 308 314 319 323 325 327 327 327 326 325 324 322 321 320 319 318 317 317 316 315 315 314 314 313 313 313 313 312 312 312 312 312 312 312 312 312 312 312 312 311 311 311 311 310 310
199 201 202 203 204 204 206 210 214 217 217 217 218 221 225 231 239 251 264 277 284 290 295 301 308 314 318 321 322 324 324 325 324 323 322 321 319 318 317 317 316 315 315 314 314 313 313 313 313 312 312 312 312 312 312 312 312 312 312 312 312 312 311 311 311 311 310 310 310
201 202 204 205 205 206 209 213 216 218 219 219 220 222 226 232 241 254 266 275 281 287 295 302 308 313 315 318 320 321 322 323 322 322 320 319 318 317 316 315 314 314 313 313 313 312 312 312 312 312 312 312 313 312 312 312 312 312 312 312 312 311 311 311 311 311 310 310 310
201 202 204 205 206 207 209 212 215 217 219 221 222 224 228 234 244 256 266 273 281 289 296 303 308 311 313 315 317 319 320 320 320 320 319 318 316 315 314 314 313 312 312 312 312 312 312 312 312 312 312 312 313 313 312 312 312 312 312 311 311 312 312 311 311 311 311 311 311
202 203 204 205 207 208 210 212 214 216 219 221 223 225 230 238 248 258 267 275 284 291 297 302 305 307 310 312 314 316 318 318 318 318 317 316 314 313 313 312 312 312 311 311 311 312 312 312 312 313 313 313 313 313 312 312 312 312 312 312 312 312 312 312 312 312 312 312 312
202 203 205 206 208 210 212 214 215 217 219 221 224 227 234 242 252 262 271 279 285 292 297 300 302 304 307 309 311 314 315 316 316 316 315 314 313 311 311 311 311 311 311 311 312 312 312 313 313 314 314 314 314 313 313 312 312 312 312 313 313 313 314 313 313 313 313 313 314
203 204 206 207 208 210 211 214 216 218 220 222 226 230 238 247 258 267 276 282 288 293 296 298 300 302 304 307 309 312 313 314 314 314 313 312 311 310 310 310 310 311 311 311 312 313 313 314 314 315 315 314 314 314 313 313 313 313 313 314 314 314 314 314 314 314 313 314 315
204 206 208 209 210 211 212 214 216 218 221 224 229 235 243 253 264 272 279 285 291 294 295 296 298 300 302 305 308 310 311 312 312 312 311 310 310 310 310 310 311 311 312 312 313 314 314 315 315 315 315 315 315 314 314 314 314 314 315 315 315 315 315 315 314 314 314 315 316
208 209 211 212 213 213 213 215 217 220 223 227 233 240 249 260 269 276 283 289 291 292 293 295 297 299 302 304 306 308 310 311 311 311 310 310 309 310 310 311 312 312 313 314 315 315 316 316 316 316 316 316 315 315 315 315 315 316 316 316 316 315 315 315 315 315 315 316 318
211 213 214 214 214 215 215 217 219 222 226 230 237 246 256 265 273 279 285 288 290 291 293 296 297 299 301 303 305 307 308 309 310 310 309 309 310 310 311 312 313 314 315 315 316 316 317 317 317 317 317 317 317 317 317 317 317 316 316 316 316 316 315 316 316 316 317 318 319
213 215 215 214 214 215 217 219 222 225 229 234 242 251 261 269 276 281 285 288 290 292 294 295 296 298 300 302 304 306 308 308 309 309 309 310 310 311 312 313 314 315 316 317 318 318 318 318 318 318 318 318 318 318 318 317 317 317 317 316 316 316 316 316 317 317 318 319 320
214 214 214 214 214 216 218 221 224 227 231 237 245 255 264 272 277 282 286 289 291 293 294 295 296 297 299 301 303 305 307 308 308 309 309 310 311 312 313 314 316 317 318 318 319 319 319 319 318 318 318 319 319 319 318 318 317 317 316 316 316 316 317 317 318 319 319 320 320
212 212 213 214 215 217 220 223 226 229 233 240 249 259 268 274 279 283 287 290 292 293 295 295 296 297 299 301 303 305 307 308 308 309 310 311 312 313 315 316 317 318 319 320 320 320 320 319 319 319 319 319 319 319 318 317 317 316 316 316 316 317 318 318 319 320 320 320 320
210 210 211 213 216 219 222 225 228 231 235 243 253 262 271 276 281 285 288 290 292 294 295 295 296 298 300 302 304 306 307 308 309 310 311 312 314 315 317 318 319 320 320 321 321 321 321 320 320 319 319 319 319 318 318 317 316 316 316 316 317 317 318 319 319 320 320 320 320
209 210 212 214 217 221 224 227 229 233 239 247 257 266 273 278 282 286 288 290 292 293 294 295 296 298 301 303 305 306 308 309 310 311 312 314 316 317 319 320 321 321 322 322 322 321 321 320 320 319 319 318 318 317 317 316 316 316 316 317 317 318 318 319 319 319 319 319 319
209 211 213 216 219 223 226 228 231 236 242 251 261 269 275 280 284 286 289 290 291 292 293 294 296 298 301 303 305 307 308 310 311 313 315 317 318 320 321 322 322 322 322 322 322 322 321 321 320 320 319 318 317 317 317 317 317 317 317 317 318 318 318 318 318 318 318 318 318
211 213 216 219 222 225 228 230 234 239 246 256 265 272 277 281 284 286 288 289 290 291 292 294 296 299 301 303 305 307 309 310 312 315 317 319 321 322 322 323 323 323 323 322 322 322 322 321 320 319 319 318 318 318 318 318 318 318 318 318 318 317 317 317 317 317 317 317 317
214 216 219 221 224 227 229 232 236 242 250 260 268 274 278 281 283 286 286 287 289 290 292 294 296 299 302 304 306 308 310 312 315 318 320 321 322 323 323 323 323 323 323 323 323 322 322 321 320 319 319 318 319 319 319 319 319 319 318 318 317 317 316 316 316 316 316 317 317
217 219 222 224 226 228 231 234 239 246 254 263 269 274 278 281 283 284 285 286 288 290 292 294 297 300 302 305 307 309 312 315 318 321 322 323 323 323 323 323 324 323 323 323 323 322 321 321 320 320 320 320 320 320 320 320 319 319 318 317 316 316 315 315 315 315 316 316 317
220 222 224 226 227 229 232 236 242 250 257 264 270 274 278 280 282 283 284 286 288 290 293 296 299 302 304 306 308 311 314 317 320 322 323 324 324 324 324 324 324 324 324 324 323 322 322 321 321 322 322 322 321 321 320 320 319 318 317 316 315 315 315 315 315 315 316 316 317
223 225 226 227 229 231 234 239 246 252 259 265 270 274 277 279 281 282 284 285 288 291 294 298 302 304 306 308 310 313 316 319 322 323 324 324 324 324 324 324 324 324 324 324 324 323 323 323 323 323 323 322 321 321 320 319 319 318 317 316 315 315 314 315 315 316 316 317 317
225 226 228 229 231 233 237 242 248 254 260 265 269 273 276 279 280 281 283 285 288 293 297 301 304 307 309 311 314 316 319 321 323 323 324 324 324 324 324 324 325 325 324 325 325 324 324 324 324 323 323 322 321 320 319 319 318 317 317 316 316 315 315 315 316 316 317 318 317
226 228 229 230 232 235 239 244 250 255 260 265 269 274 277 279 280 281 283 285 290 295 300 303 306 308 311 314 317 320 321 322 323 324 324 324 325 325 325 325 325 325 325 325 325 325 325 324 324 323 322 321 320 320 319 319 318 317 317 316 316 316 316 316 317 318 318 318 318
228 228 229 231 234 237 241 245 250 255 261 265 270 274 276 278 279 281 283 286 292 297 301 304 307 309 312 316 319 321 322 323 324 325 325 326 326 326 326 326 325 325 325 325 325 324 324 324 323 322 321 320 320 320 319 318 317 317 316 316 316 316 317 318 318 319 319 320 320
228 229 230 233 235 238 241 246 251 256 261 266 270 273 275 277 278 280 283 287 293 299 303 305 307 310 313 317 319 322 323 324 324 325 326 327 327 327 327 326 326 325 325 325 325 324 324 323 322 322 321 321 320 319 319 318 317 316 316 316 316 317 318 319 319 320 320 321 321
228 229 231 234 235 238 242 246 251 256 261 266 270 273 275 276 277 280 284 289 295 299 302 305 308 310 314 317 320 321 323 323 324 325 326 327 328 328 327 327 326 325 325 325 324 324 323 323 322 322 322 321 321 319 318 317 317 317 317 317 317 318 319 320 320 321 321 321 319
228 230 231 233 235 238 242 246 251 256 262 267 271 273 274 275 277 280 286 292 296 299 301 304 307 311 314 317 320 321 323 324 324 325 326 327 328 328 328 326 325 324 324 324 324 324 323 323 322 322 322 322 321 319 318 317 317 317 318 318 318 318 319 320 320 320 319 318 316
227 228 230 232 235 238 242 246 251 258 264 268 271 272 273 274 277 283 289 294 297 299 301 304 308 311 315 317 319 321 323 324 325 326 326 327 327 328 327 326 325 324 324 324 324 323 323 323 322 322 323 323 321 320 318 317 318 318 319 319 319 319 319 319 319 318 316 315 315
225 226 228 231 235 238 242 247 254 260 266 269 270 271 271 274 279 286 291 295 297 300 302 305 308 312 315 317 319 321 322 324 325 326 327 327 327 327 327 326 325 324 324 324 324 323 323 323 322 323 323 323 322 320 318 318 319 319 320 321 321 320 318 316 315 314 313 314 316
223 225 228 231 235 238 243 249 257 263 266 267 267 268 271 276 282 288 293 296 298 301 303 307 309 312 314 316 318 321 323 324 326 326 327 327 327 327 327 326 325 324 324 324 323 323 323 322 323 323 324 324 322 320 319 319 320 321 322 323 323 321 317 313 311 310 312 315 320
222 225 228 231 235 239 245 252 258 262 264 264 265 267 273 279 286 291 294 297 299 302 305 308 311 313 315 317 319 321 323 325 326 327 327 327 327 327 326 326 325 324 324 323 323 323 322 322 323 324 325 324 322 321 320 321 321 322 324 325 325 324 320 314 311 313 317 322 327
223 225 228 232 235 241 248 254 258 261 262 262 265 270 276 282 288 292 295 298 301 303 307 309 312 315 317 319 321 322 324 325 326 327 327 326 326 326 326 325 325 324 323 323 322 322 322 322 323 325 326 325 323 322 322 322 323 324 325 326 327 327 325 322 321 323 327 330 330
224 226 229 233 238 245 251 255 258 259 260 263 267 273 279 284 288 292 295 298 301 305 308 311 313 316 318 320 322 324 325 326 327 327 327 326 326 325 325 325 324 324 323 322 322 322 322 323 324 326 327 326 325 324 324 323 323 324 325 327 328 329 328 328 329 331 332 332 329
224 226 231 236 243 249 253 255 258 260 261 265 270 275 281 285 290 292 296 299 302 306 309 311 314 316 318 320 323 325 326 327 327 327 327 326 325 325 324 324 323 323 323 322 322 322 323 324 326 328 329 327 326 325 324 323 323 324 325 327 327 328 328 329 330 330 330 329 327
224 227 233 241 247 252 255 257 258 260 262 266 271 277 282 287 291 294 297 300 304 307 309 311 314 316 318 321 323 326 327 328 328 327 326 326 325 324 323 323 323 323 323 323 322 322 323 325 328 330 330 328 327 325 324 323 323 324 325 326 326 325 326 327 328 328 327 327 326
225 230 238 246 252 256 257 258 258 259 262 267 273 278 283 288 293 296 300 303 306 309 311 313 315 318 320 322 324 326 328 328 327 326 326 325 324 323 323 323 322 323 323 323 323 323 324 327 330 332 331 329 326 325 324 323 323 323 324 324 323 323 323 325 326 326 326 326 328
228 236 244 251 256 257 257 257 257 259 263 268 274 280 285 290 294 298 302 306 309 311 313 315 317 319 321 323 325 326 327 327 327 326 325 324 323 322 322 322 322 322 323 323 323 324 326 329 332 333 331 328 325 324 323 322 322 322 322 323 322 323 324 325 325 325 326 327 328
235 244 251 256 257 258 257 256 257 259 264 270 276 282 287 292 297 301 305 308 310 312 314 317 319 321 323 324 325 326 326 327 326 325 324 323 322 322 321 321 321 322 322 324 324 326 328 331 333 333 330 327 325 324 323 322 322 322 322 322 323 324 325 325 325 326 327 328 326
243 251 256 258 258 256 255 254 256 260 266 272 278 284 289 295 299 303 306 309 311 313 315 318 320 322 324 325 325 325 325 325 325 325 324 323 322 322 321 321 321 322 323 324 326 328 330 333 333 332 330 328 325 323 322 322 322 322 322 323 324 325 325 325 326 327 327 325 323
Height
1480 1481 1482 1483 1484 1485 1485 1486 1487 1487 1488 1488 1489 1489 1490 1490 1490 1490 1490 1490 1490 1490 1490 1490 1490 1489 1489 1488 1488 1487 1486 1486 1485 1484 1483 1483 1482 1481 1480 1480 1479 1478 1477 1477 1476 1476 1475 1474 1473 1472 1471 1471 1470 1469 1468 1467 1466 1465 1464 1463 1461 1460 1459 1458 1457 1456 1455 1454 1453
1480 1481 1481 1482 1483 1484 1485 1486 1486 1486 1487 1488 1488 1489 1489 1489 1490 1490 1490 1490 1489 1489 1489 1489 1489 1489 1488 1487 1487 1486 1486 1485 1484 1483 1482 1482 1481 1480 1480 1479 1478 1477 1476 1476 1475 1475 1474 1473 1472 1471 1471 1470 1469 1468 1466 1466 1465 1463 1462 1461 1460 1459 1458 1457 1456 1455 1454 1452 1451
1479 1480 1481 1482 1483 1484 1485 1485 1486 1486 1486 1487 1487 1488 1488 1489 1489 1489 1489 1489 1489 1489 1489 1488 1488 1488 1487 1486 1486 1485 1485 1484 1483 1483 1482 1481 1480 1479 1479 1478 1477 1476 1476 1475 1474 1473 1473 1472 1471 1470 1469 1468 1467 1466 1465 1464 1463 1462 1461 1460 1459 1458 1457 1456 1454 1453 1452 1451 1450
1479 1480 1481 1482 1483 1484 1484 1485 1485 1486 1486 1486 1487 1487 1488 1488 1488 1488 1488 1488 1488 1488 1488 1488 1487 1487 1486 1486 1485 1484 1484 1483 1483 1482 1481 1480 1479 1479 1478 1477 1476 1476 1475 1474 1473 1472 1471 1471 1470 1469 1468 1467 1466 1465 1464 1463 1462 1461 1460 1459 1458 1456 1455 1454 1453 1452 1451 1450 1448
1479 1480 1481 1482 1483 1484 1484 1484 1485 1485 1486 1486 1486 1487 1487 1487 1488 1488 1488 1488 1488 1487 1487 1487 1486 1486 1485 1485 1484 1484 1483 1482 1482 1481 1480 1479 1479 1478 1477 1476 1476 1475 1474 1473 1472 1471 1471 1470 1469 1468 1467 1466 1465 1464 1463 1462 1461 1460 1459 1458 1456 1455 1454 1453 1452 1451 1449 1448 1447
1479 1480 1481 1482 1482 1483 1483 1484 1484 1485 1485 1486 1486 1486 1487 1487 1487 1487 1487 1487 1487 1486 1486 1486 1485 1485 1484 1484 1483 1483 1482 1481 1481 1480 1480 1479 1478 1477 1476 1475 1475 1474 1473 1472 1471 1470 1470 1469 1468 1467 1466 1465 1464 1463 1461 1461 1459 1458 1457 1456 1455 1454 1453 1451 1450 1449 1448 1446 1445
1478 1479 1480 1481 1482 1482 1483 1483 1484 1484 1485 1485 1486 1486 1486 1486 1486 1487 1486 1486 1486 1486 1485 1485 1485 1484 1484 1483 1482 1482 1481 1481 1480 1479 1479 1478 1477 1476 1476 1475 1474 1473 1472 1471 1470 1469 1468 1467 1466 1466 1465 1464 1463 1461 1461 1459 1458 1457 1456 1455 1454 1453 1451 1450 1449 1447 1446 1445 1443
1478 1479 1480 1481 1481 1481 1482 1483 1483 1484 1484 1485 1485 1486 1486 1486 1486 1486 1486 1486 1485 1485 1485 1484 1484 1483 1483 1482 1482 1481 1481 1480 1479 1478 1478 1477 1476 1475 1475 1474 1473 1472 1471 1470 1469 1468 1467 1466 1466 1464 1463 1462 1461 1460 1459 1458 1457 1456 1455 1453 1452 1451 1450 1449 1447 1446 1444 1443 1442
1477 1478 1479 1480 1481 1481 1482 1482 1483 1483 1484 1484 1485 1485 1485 1486 1486 1485 1485 1485 1484 1484 1484 1483 1483 1482 1482 1481 1481 1481 1480 1479 1478 1477 1477 1476 1475 1474 1474 1473 1472 1471 1470 1469 1468 1467 1466 1465 1464 1463 1462 1461 1460 1459 1458 1457 1456 1454 1453 1452 1451 1449 1448 1447 1446 1444 1443 1441 1440
1477 1478 1479 1479 1480 1481 1481 1482 1483 1483 1483 1484 1484 1485 1485 1485 1485 1485 1484 1484 1484 1483 1483 1482 1482 1482 1481 1481 1480 1480 1479 1478 1477 1476 1476 1475 1474 1473 1472 1471 1471 1470 1469 1468 1467 1466 1465 1464 1463 1462 1461 1460 1459 1458 1456 1455 1454 1453 1451 1450 1449 1448 1446 1445 1444 1442 1441 1440 1438
1476 1477 1478 1479 1480 1480 1481 1481 1482 1482 1483 1483 1484 1484 1484 1484 1484 1484 1483 1483 1483 1482 1482 1482 1481 1481 1480 1480 1479 1478 1478 1477 1476 1476 1475 1474 1473 1472 1471 1471 1470 1469 1468 1467 1466 1465 1464 1463 1462 1461 1460 1459 1458 1456 1455 1454 1452 1451 1450 1449 1447 1446 1445 1443 1442 1441 1439 1438 1436
1476 1477 1478 1478 1479 1480 1481 1481 1481 1482 1482 1483 1483 1483 1483 1483 1483 1483 1482 1482 1482 1481 1481 1481 1481 1480 1479 1479 1478 1477 1477 1476 1475 1475 1474 1473 1472 1471 1470 1469 1468 1467 1466 1466 1465 1463 1462 1461 1460 1459 1458 1457 1456 1455 1454 1452 1451 1450 1448 1447 1446 1444 1443 1441 1440 1439 1438 1436 1435
1476 1476 1477 1478 1479 1479 1480 1481 1481 1481 1482 1482 1482 1482 1482 1482 1482 1482 1482 1481 1481 1481 1480 1480 1479 1479 1478 1478 1477 1476 1476 1475 1474 1473 1473 1472 1471 1470 1469 1468 1467 1466 1466 1465 1463 1462 1461 1460 1459 1458 1457 1456 1455 1454 1452 1451 1449 1448 1446 1445 1444 1442 1441 1440 1438 1437 1436 1435 1433
1475 1476 1476 1477 1478 1479 1480 1480 1481 1481 1481 1481 1482 1482 1482 1481 1481 1481 1481 1481 1480 1480 1479 1479 1478 1478 1477 1477 1476 1475 1475 1474 1473 1472 1472 1471 1470 1469 1468 1467 1466 1466 1465 1463 1462 1461 1460 1459 1458 1456 1455 1454 1453 1452 1451 1449 1448 1446 1445 1443 1442 1441 1439 1438 1437 1436 1434 1433 1431
1475 1476 1476 1477 1478 1478 1479 1480 1480 1481 1481 1481 1481 1481 1481 1481 1481 1480 1480 1480 1479 1479 1478 1478 1477 1477 1476 1476 1475 1474 1474 1473 1472 1471 1471 1470 1469 1468 1467 1466 1465 1464 1463 1462 1461 1460 1459 1458 1456 1455 1454 1453 1451 1450 1449 1448 1446 1445 1444 1442 1441 1439 1437 1436 1435 1434 1432 1431 1430
1474 1475 1476 1476 1477 1478 1479 1479 1480 1480 1480 1480 1480 1480 1480 1480 1480 1480 1479 1479 1478 1478 1477 1477 1476 1476 1475 1475 1474 1473 1473 1472 1471 1471 1470 1469 1468 1467 1466 1465 1464 1463 1462 1461 1460 1459 1458 1457 1455 1454 1452 1451 1450 1449 1447 1446 1445 1443 1442 1441 1439 1437 1436 1435 1433 1432 1431 1430 1428
1474 1475 1475 1476 1477 1477 1478 1479 1479 1479 1480 1480 1480 1480 1479 1479 1479 1479 1478 1478 1477 1477 1476 1476 1475 1475 1474 1473 1473 1472 1472 1471 1470 1470 1469 1468 1467 1466 1465 1464 1463 1462 1461 1460 1459 1458 1456 1456 1454 1453 1451 1450 1448 1447 1446 1445 1443 1442 1441 1439 1437 1436 1435 1433 1432 1431 1429 1428 1427
1473 1474 1475 1476 1476 1477 1477 1478 1478 1479 1479 1479 1479 1479 1479 1478 1478 1478 1477 1477 1476 1476 1476 1475 1474 1474 1473 1473 1472 1471 1471 1470 1469 1469 1468 1467 1466 1465 1464 1463 1462 1461 1460 1459 1457 1456 1455 1454 1453 1451 1450 1449 1447 1446 1444 1443 1441 1440 1439 1437 1436 1435 1433 1432 1431 1429 1428 1427 1426
1473 1474 1475 1475 1476 1476 1477 1477 1478 1478 1478 1478 1478 1478 1478 1477 1477 1477 1476 1476 1476 1475 1475 1474 1473 1473 1472 1472 1471 1471 1470 1469 1469 1468 1467 1466 1465 1464 1463 1462 1461 1460 1459 1457 1456 1455 1454 1452 1451 1450 1448 1447 1446 1444 1443 1441 1440 1438 1437 1436 1434 1433 1431 1430 1429 1428 1426 1425 1424
1472 1473 1474 1475 1475 1476 1476 1476 1477 1477 1477 1477 1477 1477 1477 1477 1476 1476 1476 1475 1475 1474 1474 1473 1473 1472 1471 1471 1471 1470 1469 1468 1468 1467 1466 1465 1464 1463 1462 1461 1460 1459 1457 1456 1455 1454 1452 1451 1449 1448 1447 1445 1444 1442 1441 1439 1438 1436 1435 1434 1432 1431 1430 1429 1427 1426 1425 1424 1423
1472 1473 1474 1474 1475 1475 1476 1476 1476 1476 1476 1476 1476 1476 1476 1476 1476 1475 1475 1474 1474 1473 1473 1472 1472 1471 1471 1470 1470 1469 1468 1467 1467 1466 1465 1464 1463 1462 1461 1460 1458 1457 1456 1455 1454 1452 1451 1449 1448 1446 1445 1443 1442 1440 1439 1437 1436 1435 1433 1432 1431 1430 1428 1427 1426 1425 1423 1422 1421
1472 1473 1473 1474 1474 1474 1475 1475 1475 1476 1476 1476 1476 1475 1475 1475 1475 1474 1474 1473 1473 1472 1472 1471 1471 1471 1470 1469 1469 1468 1467 1467 1466 1465 1464 1463 1462 1461 1460 1458 1457 1456 1455 1453 1452 1451 1449 1448 1446 1445 1443 1441 1440 1438 1437 1436 1434 1433 1431 1430 1429 1428 1426 1425 1424 1423 1422 1421 1420
1471 1472 1472 1473 1473 1474 1474 1474 1474 1475 1475 1475 1475 1474 1474 1474 1474 1473 1473 1472 1472 1471 1471 1471 1470 1470 1469 1468 1468 1467 1466 1466 1465 1464 1463 1462 1461 1460 1458 1457 1456 1455 1453 1452 1451 1449 1447 1446 1444 1443 1441 1440 1438 1437 1435 1434 1432 1431 1430 1428 1427 1426 1425 1424 1422 1421 1420 1419 1418
1471 1471 1472 1472 1473 1473 1473 1473 1474 1474 1474 1474 1474 1473 1473 1473 1473 1472 1472 1471 1471 1471 1470 1470 1469 1469 1468 1467 1467 1466 1466 1465 1464 1463 1462 1461 1460 1459 1457 1456 1455 1453 1452 1451 1449 1448 1446 1444 1443 1441 1440 1438 1437 1435 1434 1432 1431 1429 1428 1426 1425 1424 1423 1422 1421 1420 1419 1417 1416
1470 1471 1471 1471 1472 1472 1472 1473 1473 1473 1473 1473 1473 1473 1472 1472 1472 1471 1471 1471 1470 1470 1469 1469 1468 1468 1467 1467 1466 1465 1464 1464 1463 1462 1461 1460 1459 1457 1456 1455 1453 1452 1451 1450 1448 1447 1445 1443 1442 1440 1438 1436 1435 1434 1432 1431 1429 1428 1426 1425 1423 1422 1421 1420 1419 1418 1417 1416 1415
1470 1470 1471 1471 1471 1471 1472 1472 1472 1472 1472 1472 1472 1472 1471 1471 1471 1471 1470 1470 1470 1469 1469 1468 1468 1467 1466 1466 1465 1464 1463 1462 1461 1461 1460 1459 1457 1456 1455 1453 1452 1451 1449 1448 1447 1446 1444 1442 1441 1439 1437 1435 1434 1432 1431 1429 1428 1426 1425 1423 1422 1421 1419 1418 1417 1416 1415 1414 1413
1469 1469 1470 1470 1471 1471 1471 1471 1471 1471 1471 1471 1471 1471 1471 1470 1470 1470 1469 1469 1469 1468 1468 1467 1467 1466 1466 1465 1464 1463 1462 1461 1460 1459 1458 1457 1456 1455 1453 1452 1451 1449 1448 1447 1445 1444 1442 1441 1440 1438 1436 1434 1432 1431 1429 1427 1426 1425 1423 1422 1421 1419 1418 1417 1415 1414 1413 1412 1411
1468 1469 1469 1470 1470 1470 1470 1470 1470 1470 1470 1470 1470 1470 1470 1469 1469 1469 1469 1468 1468 1468 1467 1467 1466 1466 1465 1464 1463 1462 1461 1460 1459 1458 1457 1456 1455 1453 1452 1451 1449 1448 1446 1445 1444 1442 1441 1440 1438 1436 1435 1433 1431 1429 1428 1426 1424 1423 1422 1421 1419 1418 1417 1416 1414 1413 1412 1411 1410
1468 1468 1468 1469 1469 1469 1469 1469 1470 1469 1469 1469 1469 1469 1469 1469 1468 1468 1468 1468 1467 1467 1466 1466 1466 1465 1464 1463 1462 1461 1460 1459 1458 1457 1456 1455 1453 1452 1451 1449 1448 1446 1445 1444 1442 1441 1439 1438 1436 1435 1433 1432 1430 1428 1426 1425 1423 1421 1420 1419 1418 1417 1416 1414 1413 1412 1411 1410 1408
1467 1467 1468 1468 1468 1468 1468 1469 1469 1469 1469 1468 1468 1468 1468 1468 1468 1467 1467 1467 1466 1466 1466 1465 1465 1464 1463 1462 1461 1460 1459 1458 1457 1456 1454 1453 1452 1451 1450 1448 1446 1445 1444 1442 1441 1439 1438 1436 1435 1433 1432 1430 1429 1427 1425 1423 1422 1420 1419 1417 1416 1415 1414 1413 1412 1411 1409 1408 1407
1466 1466 1467 1467 1467 1468 1468 1468 1468 1468 1468 1468 1467 1467 1467 1467 1467 1467 1466 1466 1466 1465 1465 1464 1464 1463 1462 1461 1460 1459 1458 1457 1456 1454 1453 1452 1451 1449 1448 1446 1445 1443 1442 1441 1439 1438 1436 1435 1433 1432 1431 1429 1427 1425 1423 1422 1421 1419 1417 1416 1415 1414 1413 1412 1411 1410 1408 1407 1406
1466 1466 1466 1466 1467 1467 1467 1467 1467 1467 1467 1467 1467 1467 1467 1467 1466 1466 1466 1466 1465 1465 1464 1463 1463 1462 1461 1460 1459 1458 1457 1456 1455 1453 1452 1451 1449 1448 1446 1445 1444 1442 1441 1439 1438 1436 1435 1433 1432 1430 1429 1427 1426 1424 1422 1421 1419 1417 1416 1415 1414 1413 1411 1411 1409 1408 1407 1406 1405
1465 1465 1466 1466 1466 1466 1466 1466 1466 1466 1466 1466 1466 1466 1466 1466 1466 1466 1465 1465 1464 1464 1463 1462 1462 1461 1460 1459 1458 1457 1456 1455 1453 1452 1451 1449 1448 1446 1445 1444 1442 1441 1439 1438 1436 1435 1433 1432 1430 1429 1427 1426 1424 1422 1421 1419 1417 1416 1415 1413 1412 1411 1410 1409 1408 1407 1406 1404 1403
1464 1465 1465 1465 1466 1466 1466 1466 1466 1466 1466 1466 1466 1466 1466 1465 1465 1465 1464 1464 1463 1463 1462 1461 1461 1460 1459 1458 1457 1456 1455 1453 1452 1451 1449 1448 1446 1445 1444 1442 1441 1439 1438 1436 1435 1433 1432 1431 1429 1427 1426 1424 1422 1421 1419 1417 1416 1414 1413 1412 1411 1410 1409 1408 1406 1406 1404 1403 1402
1464 1464 1464 1465 1465 1465 1465 1465 1465 1465 1465 1465 1465 1465 1465 1465 1464 1464 1464 1463 1463 1462 1461 1461 1460 1459 1458 1457 1456 1455 1453 1452 1451 1450 1448 1446 1445 1444 1442 1441 1440 1438 1437 1435 1433 1432 1431 1429 1427 1426 1424 1423 1421 1419 1418 1416 1414 1413 1411 1410 1409 1408 1407 1406 1405 1404 1403 1401 1400
1463 1464 1464 1464 1464 1464 1464 1465 1465 1465 1465 1465 1465 1464 1464 1464 1464 1463 1463 1462 1462 1461 1461 1460 1459 1458 1457 1456 1455 1454 1452 1451 1449 1448 1446 1445 1444 1442 1441 1440 1438 1437 1435 1434 1432 1431 1429 1427 1426 1425 1423 1421 1420 1418 1416 1415 1413 1412 1410 1409 1408 1407 1406 1405 1403 1402 1401 1400 1399
1463 1463 1463 1463 1464 1464 1464 1464 1464 1464 1464 1464 1464 1464 1463 1463 1463 1462 1462 1461 1461 1460 1460 1459 1458 1457 1456 1455 1454 1452 1451 1450 1448 1446 1445 1444 1442 1441 1439 1438 1437 1436 1434 1432 1431 1429 1428 1426 1425 1423 1421 1420 1418 1417 1415 1414 1412 1411 1409 1408 1406 1406 1404 1403 1402 1401 1400 1398 1397
1462 1462 1463 1463 1463 1463 1463 1463 1463 1463 1463 1463 1463 1463 1463 1462 1462 1461 1461 1461 1460 1459 1458 1458 1457 1456 1455 1453 1452 1451 1450 1449 1447 1446 1444 1442 1441 1440 1438 1436 1435 1434 1432 1431 1429 1428 1426 1425 1423 1422 1421 1419 1417 1416 1414 1412 1411 1409 1408 1406 1405 1404 1403 1402 1401 1399 1398 1397 1396
1462 1462 1462 1462 1462 1462 1463 1463 1463 1463 1463 1463 1463 1462 1462 1462 1461 1461 1460 1459 1459 1458 1457 1456 1456 1455 1453 1452 1451 1450 1449 1448 1446 1445 1443 1441 1440 1438 1437 1435 1434 1432 1431 1430 1428 1426 1425 1423 1422 1421 1420 1418 1416 1415 1413 1411 1410 1408 1407 1406 1404 1403 1401 1400 1399 1397 1396 1395 1395
1461 1461 1462 1462 1462 1462 1462 1462 1462 1462 1462 1462 1462 1462 1461 1461 1461 1460 1459 1458 1458 1457 1456 1455 1454 1453 1452 1451 1450 1449 1448 1447 1446 1444 1442 1441 1439 1437 1436 1434 1432 1431 1430 1428 1427 1425 1423 1422 1421 1420 1418 1417 1416 1414 1412 1411 1409 1407 1406 1405 1403 1401 1400 1398 1397 1396 1395 1394 1393
1461 1461 1461 1461 1461 1462 1462 1462 1462 1462 1462 1461 1461 1461 1461 1460 1460 1459 1458 1457 1457 1456 1455 1454 1453 1452 1451 1450 1449 1447 1446 1445 1444 1443 1441 1440 1438 1436 1435 1433 1431 1430 1428 1427 1425 1424 1422 1421 1420 1418 1417 1416 1415 1413 1411 1410 1408 1406 1405 1403 1402 1400 1398 1397 1396 1395 1394 1392 1391